TimeEST,TemperatureF,Dew PointF,Humidity,Sea Level PressureIn,VisibilityMPH,Wind Direction,Wind SpeedMPH,Gust SpeedMPH,PrecipitationIn,Events,Conditions,WindDirDegrees,DateUTC
12:56 AM,37.4,21.2,52,30.51,10.0,NNE,4.6,-,N/A,,Clear,20,2013-01-11 05:56:00
1:56 AM,35.1,21.9,59,30.51,10.0,NNE,5.8,-,N/A,,Clear,20,2013-01-11 06:56:00
2:56 AM,33.1,21.9,64,30.50,10.0,Calm,Calm,-,N/A,,Clear,0,2013-01-11 07:56:00
3:56 AM,30.9,21.0,67,30.48,10.0,Calm,Calm,-,N/A,,Clear,0,2013-01-11 08:56:00
4:56 AM,33.1,21.0,61,30.46,10.0,Calm,Calm,-,N/A,,Clear,0,2013-01-11 09:56:00
5:56 AM,34.0,21.0,59,30.46,10.0,Calm,Calm,-,N/A,,Clear,0,2013-01-11 10:56:00
6:56 AM,34.0,21.0,59,30.48,10.0,Variable,3.5,-,N/A,,Clear,0,2013-01-11 11:56:00
7:56 AM,34.0,21.9,61,30.49,10.0,Calm,Calm,-,N/A,,Clear,0,2013-01-11 12:56:00
8:56 AM,35.1,23.0,61,30.46,10.0,East,5.8,-,N/A,,Partly Cloudy,90,2013-01-11 13:56:00
9:56 AM,36.0,25.0,64,30.47,10.0,SE,3.5,-,N/A,,Mostly Cloudy,130,2013-01-11 14:56:00
10:56 AM,37.0,27.0,67,30.44,10.0,ESE,5.8,-,N/A,,Mostly Cloudy,110,2013-01-11 15:56:00
11:56 AM,37.9,28.9,70,30.38,10.0,ESE,6.9,-,N/A,,Mostly Cloudy,110,2013-01-11 16:56:00
12:56 PM,39.0,30.0,70,30.35,10.0,ESE,8.1,-,0.00,,Overcast,120,2013-01-11 17:56:00
1:56 PM,37.9,32.0,79,30.34,7.0,East,3.5,-,0.01,Rain,Light Rain,80,2013-01-11 18:56:00
2:56 PM,37.0,33.1,86,30.31,10.0,East,5.8,-,0.01,,Overcast,100,2013-01-11 19:56:00
3:56 PM,37.0,34.0,89,30.29,8.0,East,3.5,-,0.01,,Light Drizzle,90,2013-01-11 20:56:00
4:56 PM,37.0,34.0,89,30.26,6.0,East,3.5,-,0.00,Rain,Light Rain,100,2013-01-11 21:56:00
5:52 PM,37.4,35.6,93,30.21,2.0,East,5.8,-,0.04,Rain,Light Rain,100,2013-01-11 22:52:00
5:56 PM,37.0,35.1,93,30.23,2.0,East,3.5,-,0.05,Rain,Light Rain,90,2013-01-11 22:56:00
6:56 PM,37.9,36.0,93,30.20,1.0,East,5.8,-,0.03,Rain,Light Rain,90,2013-01-11 23:56:00
7:03 PM,37.4,37.4,100,30.18,2.5,East,3.5,-,0.02,Rain,Light Rain,90,2013-01-12 00:03:00
7:37 PM,39.2,37.4,93,30.17,1.0,ENE,4.6,-,0.11,Rain,Light Rain,70,2013-01-12 00:37:00
7:56 PM,39.9,39.0,97,30.21,1.0,Calm,Calm,-,0.16,Rain,Light Rain,0,2013-01-12 00:56:00
8:17 PM,41.0,39.2,93,30.18,1.5,Calm,Calm,-,0.06,Rain,Light Rain,0,2013-01-12 01:17:00
8:39 PM,41.0,39.2,93,30.17,0.8,Calm,Calm,-,0.06,Rain,Light Rain,0,2013-01-12 01:39:00
8:56 PM,39.9,39.0,97,30.18,0.5,Calm,Calm,-,0.07,Rain,Light Rain,0,2013-01-12 01:56:00
9:14 PM,41.0,39.2,93,30.16,0.2,Calm,Calm,-,0.00,Fog-Rain,Light Rain,0,2013-01-12 02:14:00
9:56 PM,41.0,39.9,96,30.16,0.2,ESE,4.6,-,0.03,Fog-Rain,Light Rain,110,2013-01-12 02:56:00
10:33 PM,42.8,39.2,87,30.13,0.2,East,4.6,-,0.00,Fog-Rain,Light Rain,80,2013-01-12 03:33:00
10:40 PM,42.8,41.0,93,30.13,0.2,East,5.8,-,0.01,Fog-Rain,Light Rain,90,2013-01-12 03:40:00
10:56 PM,42.1,41.0,96,30.14,0.2,East,4.6,-,0.02,Fog-Rain,Light Rain,90,2013-01-12 03:56:00
11:54 PM,42.8,41.0,93,30.09,1.0,East,5.8,-,0.03,Rain,Rain,90,2013-01-12 04:54:00
11:56 PM,43.0,42.1,97,30.10,0.8,East,5.8,-,0.03,Rain,Rain,100,2013-01-12 04:56:00